星链-3851 (STARLINK-3851 )

导读

STARLINK-3851是美国太空探索技术公司(SpaceX)星链星座的一员,于2022年4月29日发射入轨。星链是全球规模最大的低轨互联网卫星星座,该卫星部署在近地轨道,为全球用户提供低延迟、高速率的宽带互联网服务,助力实现偏远地区网络覆盖,支撑日常上网、流媒体、远程通信等多样场景,是星链全球组网建设中的重要组成部分。

Basic Information
目录编号:
52344
目录名称:
STARLINK-3851
国际标识:
2022-045P
轨道中心:
EARTH
卫星名称:
星链-3851
卫星全名:
星链-3851 (STARLINK-3851 )
卫星状态:
在轨 (已飞行1510 天)
发射日期:
2022-04-29 UTC
国别 :
美国 (US)
星等 :
--
Orbit Information
数据来源 国际轨道数据 AOE轨道数据
星历时间 2026-06-17T11:23:06+0800
13小时前
查看轨道信息
2026-06-14T03:00:00+0800
3天前
查看轨道信息
半长轴 6917.922km 6917.893km
偏心率 0.0001441 0.0001201
轨道倾角 53.162° 53.159°
近地点辐角 98.201° 78.272°
升交点赤经 112.640° 127.697°
平近点角 261.915° 78.632°
近地点 538.788km 538.925km
远地点 540.782km 540.587km
周期 95.438分钟 95.438分钟
每日圈数 15.088264 15.088362
Detailed Information
固有亮度:
5
最大亮度:
2.5
卫星平台:
Starlink v1.5
覆盖范围:
全球
运营商:
太空探索技术公司
运营商所在国:
美国
制造商(研发单位):
太空探索技术公司
制造商所在国:
美国
使用方式:
暂无
Satellite Introduction
星链(Starlink)计划是由太空探索技术公司(SpaceX)提出的一个巨型低轨卫星互联网星座项目,计划在2019年至2024年间在太空搭建由约1.2万颗卫星组成的“星链”网络,其中1584颗将部署在地球上空550千米处的近地轨道,并从2020年开始工作。该卫星仍在工作。
2D Orbit Map
3D Orbit Map
Orbit Altitude Analysis Chart
Orbit Inclination Analysis Chart
Orbit Comprehensive Analysis Chart
View Comprehensive Chart